Terug naar catalogus

THORAD DELTA 1 DEB

ActiefSSO
NORAD 18539·DEBRIS·🇺🇸 United States

Gelanceerd Nov 15, 1974 vanaf Vandenberg Space Force Base

Loading…

Volgende Passages (komende 24 uur)

TLE

VersSource: Space-Track

Epoch: Sep 14, 2026, 06:32 UTC

1 18539U 74089EZ  26257.27278811  .00000312  00000-0  22078-2 0  9999
2 18539 101.5621 169.9039 0028071 300.2229 212.3263 12.54286857603755

Volg THORAD DELTA 1 DEB in realtime met AllMySat

Download on the App Store